Regional Weather Roundup
Issued by NWS Cleveland, OH

Home | Current Version | Previous Version | Text Only | Print | Product List | Glossary Off
Versions: 1 2 3 4 5 6 7 8 9 10 11 12 13 14 15 16 17 18 19 20 21 22 23 24 25 26 27 28 29 30 31 32 33 34 35 36 37 38 39 40 41 42 43 44 45 46 47 48 49 50

000
ASUS41 KCLE 231010
RWRCLE
OHIO REGIONAL WEATHER ROUNDUP
NATIONAL WEATHER SERVICE WILMINGTON, OH
600 AM EDT WED APR 23 2014

NOTE: "FAIR" INDICATES FEW OR NO CLOUDS BELOW 12,000 FEET WITH NO
SIGNIFICANT WEATHER AND/OR OBSTRUCTIONS TO VISIBILITY.

OHZ001>008-015>018-024>027-034-035-043-044-231100-
   NORTHWEST OHIO

CITY           SKY/WX    TMP DP  RH WIND       PRES   REMARKS
DEFIANCE       CLEAR     35  27  72 N8        30.04R WCI  29
FINDLAY        CLEAR     35  28  75 N12       30.00R WCI  27
TOLEDO EXPRESS MOCLDY    35  28  75 N6        30.01R
TOLEDO METCALF CLEAR     36  28  73 NW10      30.02R
LIMA           CLEAR     36  28  73 NW10      30.01R
$$

OHZ009>014-019>023-028>033-038-089-231100-
   NORTHEAST OHIO

CITY           SKY/WX    TMP DP  RH WIND       PRES   REMARKS
CLE-HOPKINS    CLOUDY    41  30  65 N16G23    29.98R
CLE-LAKEFRONT  CLOUDY    39  33  79 N16       29.94R
CUY CO. ARPT   NOT AVBL
LORAIN-ELYRIA  CLOUDY    42  30  62 N15G23    29.97R
ASHTABULA      CLOUDY    36  31  82 NW15G23   29.91R
AKRON-CANTON   CLOUDY    39  31  73 N14       29.92R
WOOSTER        CLOUDY    39  31  72 N14       29.95R
MANSFIELD      CLOUDY    38  31  76 NW9       29.95R
YOUNGSTOWN     CLOUDY    37  31  78 NW14G22   29.89R
$$

OHZ042-051>053-060>062-070>072-077>081-231100-
  SOUTHWEST OHIO

CITY           SKY/WX    TMP DP  RH WIND       PRES   REMARKS
CINC-COVINGTON CLEAR     41  31  67 N10G18    30.01R
CINC-LUNKEN    CLEAR     40  31  70 NW8       30.04R
HAMILTON       CLEAR     40  31  70 NW6       30.04R
DAYTON         CLEAR     36  30  79 N8        30.01R
WRIGHT-PAT AFB CLEAR     38  30  71 NW8       30.01R
DAYTON GENERAL CLEAR     38  30  73 N8        30.00R
WILMINGTON     CLEAR     37  28  70 NW7       29.99R
$$

OHZ036-037-039>041-045>050-054>059-063>069-073>076-082>088-231100-
  CENTRAL AND SOUTHEAST OHIO

CITY           SKY/WX    TMP DP  RH WIND       PRES   REMARKS
COLUMBUS       CLEAR     41  29  62 NW10      29.97R
OSU AIRPORT    CLEAR     37  29  72 NW9       29.98R
BOLTON FIELD   CLEAR     36  31  82 NW8       29.98S
RICKENBACK AFB CLEAR     40  30  67 NW7       29.98R
NEWARK         CLEAR     39  28  64 NW9       29.95R
MARION         CLEAR     36  28  73 NW7       29.98R
LANCASTER      CLEAR     40  30  67 NW12      29.97R
ZANESVILLE     PTCLDY    40  29  64 NW5       29.94R
NEW PHILLY     CLOUDY    42  31  64 N8        29.93R
$$



USA.gov is the U.S. government's official web portal to all federal, state and local government web resources and services.